sat.trackr.live / text

‹ back to catalog

BANDWAGON-2 OBJECT AD

NORAD 62404 · 2024-247AD

PAYLOAD ACTIVE UNKNOWN

§ Identity

Operator
Country
TBD
Launch date
2024-12-21
Launch site
AFWTR
Launch vehicle
Mass (kg)
RCS (m²)

External: N2YO · Heavens-Above · Gunter

§ Orbital elements

Epoch: 2026-09-22T16:59:21.187104Z

Period
92.25 min
Inclination
44.9913°
Eccentricity
0.0008005
Mean motion
15.60900764 rev/d
Perigee alt
379.6 km
Apogee alt
390.5 km
Semi-major
6,763.2 km
B*
6.2707e-4
RAAN
54.9141°
Arg perigee
262.3598°
Mean anomaly
97.6389°
Rev number
9,865

§ Raw data

BANDWAGON-2 OBJECT AD1 62404U 24247AD  26265.70788411  .00053824  00000+0  62707-3 0  99982 62404  44.9913  54.9141 0008005 262.3598  97.6389 15.60900764 98658

JSON: /api/v1/satellites/62404 · /tle

For live sub-satellite position, see the globe view (requires WebGL).

§ Visibility from observer

Set your observer location to see the next 7 days of passes ≥ 10°. The values pass through the URL so the page stays shareable.

No JS? Fill the form by hand. The geolocation button needs JavaScript.